Location: Finney State Fishing Lake and Wildlife Area
(38.1834°N, 100.3310°W)
Time: 23:20:25
(UTC+00:00)

Hubble Space Telescope - Visible Passes

Search period start: 06 December 2022 00:00
Search period end: 16 December 2022 00:00
Orbit: 530 x 534 km, 28.5° (Epoch: 06 December)

Date Brightness Start Highest point End Pass type
(mag) Time Alt. Az. Time Alt. Az. Time Alt. Az.
07 Dec 3.2 13:15:43 10° SW 13:18:36 19° S 13:21:28 10° SE visible
08 Dec 3.5 11:24:38 11° S 11:25:29 11° SSE 11:26:41 10° SE visible
08 Dec 3.0 13:02:52 10° SW 13:05:51 20° S 13:08:50 10° SE visible
09 Dec 3.4 11:13:02 13° SSE 11:13:02 13° SSE 11:14:35 10° SE visible
09 Dec 2.9 12:50:03 10° SW 12:53:06 20° S 12:56:09 10° SE visible
10 Dec 3.6 11:01:19 13° SE 11:01:19 13° SE 11:02:12 10° SE visible
10 Dec 2.8 12:37:16 10° SW 12:40:21 21° S 12:43:26 10° SE visible
11 Dec 3.9 10:49:32 11° SE 10:49:32 11° SE 10:49:43 10° SE visible
11 Dec 2.8 12:24:45 11° SW 12:27:35 21° S 12:30:41 10° SE visible
12 Dec 2.7 12:12:53 15° SW 12:14:50 20° S 12:17:53 10° SE visible
13 Dec 2.6 12:01:00 18° SSW 12:02:04 20° S 12:05:04 10° SE visible
14 Dec 2.7 11:49:04 19° SSW 11:49:17 19° S 11:52:11 10° SE visible
15 Dec 2.9 11:37:08 17° S 11:37:08 17° S 11:39:16 10° SSE visible
